#timestamp,LO_Frequency,Hit,StdDev 
1549083615.0,286047000.6,N
1549083615.9,286047000.6,N
1549083635.8,286047001.0,N
1549083655.6,286046999.9,N
1549083675.5,286047000.4,N
1549083695.3,286047002.0,N
1549083715.1,286047002.2,N
1549083735.9,286047001.9,N
1549083755.7,286047001.7,N
1549083775.5,286047004.1,N
1549083795.4,286047001.4,N
1549083815.2,286047001.5,N
1549083835.0,286046999.7,N
1549083836.0,286046999.7,N
1549083855.8,286047000.4,N
1549083875.6,286047000.2,N
1549083895.5,286046999.9,N
1549083915.3,286047000.1,N
1549083935.1,286046999.8,N
1549083955.9,286047002.7,N
1549083975.7,286047000.1,N
1549083995.6,286047002.8,N
1549084015.4,286047002.4,N
1549084035.2,286047000.5,N
1549084055.1,286046998.6,N
1549084056.0,286046998.6,N
1549084075.8,286046998.9,N
1549084095.6,286046996.9,N
1549084115.5,286046998.6,N
1549084135.3,286046998.1,N
1549084155.2,286046998.7,N
1549084175.9,286046998.5,N
1549084195.7,286047000.7,N
1549084215.6,286047001.6,N
1549084235.4,286047001.8,N
1549084255.2,286047002.3,N
1549084275.1,286046999.9,N
1549084276.0,286046999.9,N
1549084295.8,286047001.8,N
1549084315.7,286047002.4,N
1549084335.5,286047004.4,N
1549084355.3,286046999.7,N
1549084375.2,286047000.1,N
1549084395.0,286046998.7,N
1549084395.9,286046998.7,N
1549084415.7,286046998.4,N
1549084435.6,286046996.5,N
1549084455.4,286046996.8,N
1549084475.3,286046997.4,N
1549084495.1,286046995.9,N
1549084496.0,286046995.9,N
1549084515.8,286046995.4,N
1549084535.7,286046996.1,N
1549084555.5,286046995.7,N
1549084575.3,286046995.5,N
1549084595.2,286046995.8,N
1549084615.0,286046997.8,N
1549084615.9,286046997.8,N
1549084635.8,286046998.1,N
1549084655.6,286046999.9,N
1549084675.4,286047002.7,N
1549084695.3,286047002.3,N
1549084715.1,286047000.3,N
1549084735.8,286047000.4,N
1549084755.7,286047002.7,N
1549084775.5,286047002.5,N
1549084795.4,286047002.6,N
1549084815.2,286047002.3,N
1549084835.0,286047000.7,N
1549084835.9,286047000.7,N
1549084855.8,286046999.0,N
1549084875.6,286047000.9,N
1549084895.4,286047000.4,N
1549084915.3,286047000.3,N
1549084935.1,286047000.1,N
1549084955.9,286046999.9,N
1549084975.7,286046999.9,N
1549084995.5,286046999.9,N
1549085015.4,286047001.3,N
1549085035.2,286047001.8,N
1549085055.0,286047004.4,N
1549085056.0,286047004.4,N
1549085075.8,286047001.8,N
1549085095.6,286047001.4,N
1549085115.5,286047002.6,N
1549085135.3,286047004.4,N
1549085155.1,286047003.3,N
1549085175.9,286047005.2,Y
1549085195.7,286047003.1,P
1549085215.6,286047003.1,P
1549085235.4,286047003.8,P
1549085255.2,286047003.0,Y
1549085275.1,286047000.5,P
1549085276.0,286047000.5,N
1549085295.8,286047001.0,N
1549085315.6,286046998.6,N
1549085335.5,286046999.0,N
1549085355.3,286046998.7,N
1549085375.2,286046998.1,N
1549085395.9,286047000.4,N
1549085415.7,286047000.0,N
1549085435.6,286047000.8,N
1549085455.4,286046998.1,N
1549085475.2,286046996.5,N
1549085495.1,286046999.5,N
1549085496.0,286046999.5,N
1549085515.8,286046997.7,N
1549085535.7,286046997.6,N
1549085555.5,286046995.2,Y
1549085575.3,286046997.7,P
1549085595.2,286046995.3,P
1549085615.0,286046997.8,N
1549085615.9,286046997.8,N
1549085635.8,286046993.3,Y
1549085655.6,286046995.9,P
1549085675.4,286046996.0,P
1549085695.3,286046998.2,N
1549085715.1,286047001.1,N
1549085716.0,286047001.1,N
1549085735.8,286046999.5,N
1549085755.7,286046999.5,N
1549085775.5,286046999.6,N
1549085795.3,286046999.6,N
1549085815.2,286046996.6,N
1549085835.0,286046998.4,N
1549085835.9,286046998.4,N
1549085855.8,286046999.4,N
1549085875.6,286046996.5,N
1549085895.4,286046999.6,N
1549085915.3,286046999.5,N
1549085935.1,286046996.9,N
1549085955.8,286046997.1,N
1549085975.7,286047002.4,N
1549085995.5,286046999.9,N
1549086015.4,286046999.3,N
1549086035.2,286047001.2,N
1549086055.0,286046999.5,N
1549086055.9,286046999.5,N
1549086075.8,286046999.5,N
1549086095.6,286046996.8,N
1549086115.4,286046997.7,N
1549086135.3,286046997.4,N
1549086155.1,286046995.4,N
1549086175.9,286046997.9,N
1549086195.7,286046995.4,N
1549086215.5,286046993.6,Y
1549086235.4,286046996.4,P
1549086255.2,286046995.6,P
1549086275.1,286046995.7,P
1549086276.0,286046995.7,Y
1549086295.8,286046998.8,P
1549086315.6,286046998.5,N
1549086335.5,286046998.1,N
1549086355.3,286046999.9,N
1549086375.1,286047000.7,N
1549086395.9,286046998.9,N
1549086415.7,286046998.9,N
1549086435.6,286046999.1,N
1549086455.4,286047002.8,N
1549086475.2,286047002.7,N
1549086495.1,286046999.7,N
1549086496.0,286046999.7,N
1549086515.8,286047000.0,N
1549086535.6,286047000.6,N
1549086555.5,286047000.5,N
1549086575.3,286046998.3,N
1549086595.2,286046996.6,N
1549086615.9,286046996.8,N
1549086635.7,286046997.0,N
1549086655.6,286046998.4,N
1549086675.4,286047000.6,N
1549086695.2,286047001.4,N
1549086715.1,286047001.4,N
1549086716.0,286047001.4,N
1549086735.8,286047005.4,Y
1549086755.7,286047005.0,P
1549086775.5,286047005.1,N
1549086795.3,286047005.9,N
1549086815.2,286047002.9,N
1549086835.0,286047003.2,N
1549086835.9,286047003.2,N
1549086855.7,286047004.1,N
1549086875.6,286047001.8,N
1549086895.4,286047002.3,N
1549086915.3,286047000.7,N
1549086935.1,286046998.6,N
1549086936.0,286046998.6,N
1549086955.8,286046998.5,N
1549086975.7,286046996.9,N
1549086995.5,286046997.5,N
1549087015.3,286046996.7,N
1549087035.2,286046998.7,N
1549087055.0,286046998.2,N
1549087055.9,286046998.2,N
1549087075.8,286047001.2,N
1549087095.6,286046998.2,N
1549087115.4,286046998.7,N
1549087135.3,286046998.7,N
1549087155.1,286046996.6,N
1549087175.8,286046997.4,N
1549087195.7,286046996.7,N
